| time (UTC) | temp F | wind direction | speed knots | gust knots | rain 1hr in | rain 24hr in | rain mn in | humidity % | barometer mb |
| 20260505152831 | 53 | 40 | 0.0 | 0.9 | 0.00 | 0.00 | 0.00 | 93 | 1019.0 |
| 20260505151828 | 53 | 40 | 0.9 | 1.7 | 0.00 | 0.00 | 0.00 | 93 | 1019.0 |
| 20260505151321 | 53 | 40 | 0.0 | 1.7 | 0.00 | 0.00 | 0.00 | 93 | 1018.9 |
| 20260505150815 | 53 | 40 | 0.0 | 1.7 | 0.00 | 0.00 | 0.00 | 93 | 1018.8 |
| 20260505150309 | 53 | 40 | 0.9 | 1.7 | 0.00 | 0.00 | 0.00 | 93 | 1018.8 |
| 20260505130108 | 52 | 22 | 0.0 | 0.0 | 0.00 | 0.00 | 0.00 | 93 | 1017.5 |
| 20260505124607 | 52 | 338 | 0.0 | 0.0 | 0.00 | 0.00 | 0.00 | 93 | 1017.4 |
| 20260505124105 | 52 | 338 | 0.0 | 0.0 | 0.00 | 0.00 | 0.00 | 93 | 1017.4 |
| 20260505123602 | 52 | 338 | 0.0 | 0.0 | 0.00 | 0.00 | 0.00 | 93 | 1017.2 |
| 20260505123104 | 51 | 338 | 0.0 | 0.0 | 0.00 | 0.00 | 0.00 | 93 | 1017.2 |
| 20260505122558 | 51 | 338 | 0.0 | 0.0 | 0.00 | 0.00 | 0.00 | 93 | 1017.2 |
| 20260505122056 | 51 | 338 | 0.0 | 0.0 | 0.00 | 0.00 | 0.00 | 93 | 1017.3 |
| 20260505121556 | 51 | 338 | 0.0 | 0.0 | 0.00 | 0.00 | 0.00 | 93 | 1017.3 |
| 20260505121057 | 51 | 352 | 0.0 | 0.0 | 0.00 | 0.00 | 0.00 | 93 | 1017.3 |
| 20260505120554 | 51 | 334 | 0.0 | 0.0 | 0.00 | 0.00 | 0.00 | 93 | 1017.2 |
| 20260505120052 | 51 | 343 | 0.0 | 0.0 | 0.00 | 0.00 | 0.00 | 93 | 1017.1 |
| 20260505115550 | 51 | 343 | 0.0 | 0.0 | 0.00 | 0.00 | 0.00 | 93 | 1016.9 |
| 20260505115052 | 51 | 3 | 0.0 | 0.0 | 0.00 | 0.00 | 0.00 | 93 | 1017.1 |
| 20260505114037 | 51 | 7 | 0.0 | 0.0 | 0.00 | 0.00 | 0.00 | 93 | 1017.0 |
| 20260505113533 | 51 | 17 | 0.0 | 0.0 | 0.00 | 0.00 | 0.00 | 93 | 1016.9 |
| 20260505113036 | 51 | 1 | 0.0 | 0.0 | 0.00 | 0.00 | 0.00 | 93 | 1016.9 |
| 20260505112532 | 51 | 98 | 0.0 | 0.0 | 0.00 | 0.00 | 0.00 | 93 | 1016.8 |
| 20260505112036 | 51 | 99 | 0.0 | 0.0 | 0.00 | 0.00 | 0.00 | 93 | 1016.9 |
| 20260505111532 | 51 | 99 | 0.0 | 0.0 | 0.00 | 0.00 | 0.00 | 93 | 1016.7 |
| 20260505111031 | 51 | 100 | 0.0 | 0.0 | 0.00 | 0.00 | 0.00 | 93 | 1016.8 |
| 20260505101530 | 51 | 111 | 1.7 | 5.2 | 0.00 | 0.00 | 0.00 | 92 | 1016.3 |
| 20260505101029 | 51 | 108 | 0.0 | 3.5 | 0.00 | 0.00 | 0.00 | 92 | 1016.2 |
| 20260505100524 | 51 | 118 | 0.0 | 0.0 | 0.00 | 0.00 | 0.00 | 92 | 1016.2 |
| 20260505100018 | 52 | 118 | 0.0 | 0.0 | 0.00 | 0.00 | 0.00 | 91 | 1016.3 |
| 20260505095512 | 52 | 122 | 0.0 | 0.0 | 0.00 | 0.00 | 0.00 | 92 | 1016.3 |
| 20260505095005 | 52 | 155 | 0.0 | 0.0 | 0.00 | 0.00 | 0.00 | 91 | 1016.2 |
| 20260505094459 | 52 | 155 | 0.0 | 0.9 | 0.00 | 0.00 | 0.00 | 91 | 1016.1 |
| 20260505093953 | 52 | 155 | 0.9 | 1.7 | 0.00 | 0.00 | 0.00 | 91 | 1016.0 |
| 20260505093448 | 52 | 156 | 1.7 | 2.6 | 0.00 | 0.00 | 0.00 | 91 | 1016.0 |
| 20260505092941 | 52 | 158 | 0.9 | 2.6 | 0.00 | 0.00 | 0.00 | 91 | 1016.1 |
| 20260505092435 | 51 | 229 | 0.9 | 1.7 | 0.00 | 0.00 | 0.00 | 91 | 1016.0 |
| 20260505091929 | 52 | 125 | 0.9 | 1.7 | 0.00 | 0.00 | 0.00 | 91 | 1016.0 |
| 20260505091426 | 52 | 210 | 0.9 | 1.7 | 0.00 | 0.00 | 0.00 | 91 | 1015.9 |
| 20260505090918 | 52 | 141 | 0.0 | 0.9 | 0.00 | 0.00 | 0.00 | 91 | 1015.9 |
| 20260505090412 | 52 | 62 | 0.9 | 1.7 | 0.00 | 0.00 | 0.00 | 91 | 1015.8 |
| 20260505085905 | 52 | 62 | 1.7 | 2.6 | 0.00 | 0.00 | 0.00 | 90 | 1015.8 |
| 20260505084406 | 52 | 276 | 0.9 | 1.7 | 0.00 | 0.00 | 0.00 | 90 | 1015.7 |
| 20260505083906 | 52 | 276 | 0.9 | 1.7 | 0.00 | 0.00 | 0.00 | 90 | 1015.5 |
| 20260505083406 | 52 | 276 | 0.9 | 1.7 | 0.00 | 0.00 | 0.00 | 90 | 1015.5 |
| 20260505082407 | 52 | 276 | 0.9 | 3.5 | 0.00 | 0.00 | 0.00 | 90 | 1015.5 |
| 20260505081907 | 52 | 276 | 0.0 | 3.5 | 0.00 | 0.00 | 0.00 | 89 | 1015.5 |
| 20260505081403 | 52 | 276 | 0.0 | 0.0 | 0.00 | 0.00 | 0.00 | 89 | 1015.5 |
| 20260505080901 | 53 | 276 | 0.0 | 0.0 | 0.00 | 0.00 | 0.00 | 89 | 1015.5 |
| 20260505080400 | 53 | 276 | 0.0 | 0.9 | 0.00 | 0.00 | 0.00 | 89 | 1015.4 |
| 20260505075859 | 53 | 276 | 0.9 | 2.6 | 0.00 | 0.00 | 0.00 | 89 | 1015.5 |
| 20260505075357 | 53 | 276 | 0.9 | 2.6 | 0.00 | 0.00 | 0.00 | 89 | 1015.4 |
| 20260505074854 | 53 | 278 | 0.9 | 2.6 | 0.00 | 0.00 | 0.00 | 88 | 1015.5 |
| 20260505073351 | 53 | 276 | 1.7 | 2.6 | 0.00 | 0.00 | 0.00 | 88 | 1015.3 |
| 20260505072850 | 53 | 276 | 0.9 | 2.6 | 0.00 | 0.00 | 0.00 | 88 | 1015.2 |
| 20260505072351 | 53 | 258 | 0.9 | 1.7 | 0.00 | 0.00 | 0.00 | 88 | 1015.1 |
| 20260505071848 | 53 | 237 | 0.0 | 1.7 | 0.00 | 0.00 | 0.00 | 88 | 1015.0 |
| 20260505071340 | 53 | 237 | 0.9 | 2.6 | 0.00 | 0.00 | 0.00 | 88 | 1015.0 |
| 20260505070326 | 54 | 219 | 0.9 | 1.7 | 0.00 | 0.00 | 0.00 | 87 | 1014.9 |
| 20260505065821 | 54 | 272 | 0.0 | 1.7 | 0.00 | 0.00 | 0.00 | 87 | 1014.9 |
| 20260505065316 | 54 | 272 | 0.0 | 1.7 | 0.00 | 0.00 | 0.00 | 87 | 1014.8 |
| 20260505064313 | 54 | 272 | 2.6 | 7.0 | 0.00 | 0.00 | 0.00 | 87 | 1014.7 |
| 20260505063811 | 54 | 283 | 3.5 | 7.0 | 0.00 | 0.00 | 0.00 | 87 | 1014.6 |
| 20260505063311 | 54 | 257 | 4.3 | 8.7 | 0.00 | 0.00 | 0.00 | 86 | 1014.6 |
| 20260505062810 | 54 | 280 | 4.3 | 8.7 | 0.00 | 0.00 | 0.00 | 86 | 1014.5 |
| 20260505062311 | 54 | 252 | 4.3 | 7.8 | 0.00 | 0.00 | 0.00 | 86 | 1014.5 |
| 20260505061812 | 54 | 280 | 4.3 | 7.8 | 0.00 | 0.00 | 0.00 | 86 | 1014.5 |
| 20260505060811 | 55 | 267 | 4.3 | 7.0 | 0.00 | 0.00 | 0.00 | 85 | 1014.3 |
| 20260505060311 | 55 | 269 | 4.3 | 7.0 | 0.00 | 0.00 | 0.00 | 85 | 1014.2 |
| 20260505055812 | 55 | 268 | 4.3 | 7.0 | 0.00 | 0.00 | 0.00 | 85 | 1014.1 |
| 20260505055309 | 55 | 267 | 4.3 | 7.0 | 0.00 | 0.00 | 0.00 | 85 | 1014.2 |
| 20260505054812 | 55 | 288 | 3.5 | 7.0 | 0.00 | 0.00 | 0.00 | 84 | 1014.1 |
| 20260505054312 | 55 | 283 | 1.7 | 5.2 | 0.00 | 0.00 | 0.00 | 84 | 1014.1 |
| 20260505053807 | 56 | 256 | 1.7 | 3.5 | 0.00 | 0.00 | 0.00 | 83 | 1014.2 |
| 20260505053306 | 56 | 276 | 1.7 | 3.5 | 0.00 | 0.00 | 0.00 | 83 | 1014.0 |
| 20260505051755 | 56 | 237 | 0.0 | 2.6 | 0.00 | 0.00 | 0.00 | 83 | 1013.8 |
| 20260505051251 | 56 | 152 | 0.0 | 0.9 | 0.00 | 0.00 | 0.00 | 82 | 1013.8 |
| 20260505050751 | 56 | 152 | 0.9 | 2.6 | 0.00 | 0.00 | 0.00 | 82 | 1013.7 |
| 20260505050249 | 56 | 101 | 0.9 | 2.6 | 0.00 | 0.00 | 0.00 | 81 | 1013.7 |
| 20260505041243 | 59 | 225 | 2.6 | 6.1 | 0.00 | 0.00 | 0.00 | 77 | 1013.3 |
| 20260505040243 | 59 | 255 | 4.3 | 7.8 | 0.00 | 0.00 | 0.00 | 77 | 1013.2 |
| 20260505035745 | 60 | 270 | 4.3 | 7.8 | 0.00 | 0.00 | 0.00 | 76 | 1013.1 |
| 20260505034743 | 60 | 233 | 3.5 | 7.0 | 0.00 | 0.00 | 0.00 | 76 | 1013.1 |
| 20260505034236 | 60 | 265 | 4.3 | 11.3 | 0.00 | 0.00 | 0.00 | 75 | 1012.9 |
| 20260505033738 | 60 | 235 | 5.2 | 11.3 | 0.00 | 0.00 | 0.00 | 75 | 1012.8 |
| 20260505033225 | 60 | 281 | 6.1 | 11.3 | 0.00 | 0.00 | 0.00 | 75 | 1012.7 |
| 20260505032718 | 60 | 263 | 7.0 | 13.0 | 0.00 | 0.00 | 0.00 | 74 | 1012.6 |
| 20260505031707 | 61 | 272 | 6.1 | 13.0 | 0.00 | 0.00 | 0.00 | 73 | 1012.6 |
| 20260505031200 | 62 | 272 | 7.0 | 13.0 | 0.00 | 0.00 | 0.00 | 72 | 1012.6 |
| 20260505030656 | 62 | 271 | 7.8 | 13.0 | 0.00 | 0.00 | 0.00 | 71 | 1012.5 |
| 20260505025642 | 63 | 269 | 7.0 | 12.2 | 0.00 | 0.00 | 0.00 | 69 | 1012.5 |
| 20260505025136 | 64 | 266 | 7.0 | 11.3 | 0.00 | 0.00 | 0.00 | 69 | 1012.5 |
| 20260505024631 | 64 | 275 | 6.1 | 11.3 | 0.00 | 0.00 | 0.00 | 68 | 1012.5 |
| 20260505024125 | 64 | 272 | 7.0 | 12.2 | 0.00 | 0.00 | 0.00 | 68 | 1012.4 |
| 20260505023618 | 64 | 252 | 7.8 | 13.9 | 0.00 | 0.00 | 0.00 | 68 | 1012.3 |
| 20260505023120 | 64 | 241 | 7.8 | 13.9 | 0.00 | 0.00 | 0.00 | 68 | 1012.4 |
| 20260505022607 | 64 | 260 | 7.8 | 13.9 | 0.00 | 0.00 | 0.00 | 67 | 1012.4 |
| 20260505022054 | 65 | 267 | 9.6 | 17.4 | 0.00 | 0.00 | 0.00 | 67 | 1012.5 |
| 20260505021549 | 65 | 262 | 10.4 | 19.1 | 0.00 | 0.00 | 0.00 | 67 | 1012.5 |
| 20260505021042 | 65 | 281 | 10.4 | 19.1 | 0.00 | 0.00 | 0.00 | 67 | 1012.6 |
| 20260505020537 | 65 | 283 | 9.6 | 18.2 | 0.00 | 0.00 | 0.00 | 66 | 1012.5 |
| 20260505020031 | 65 | 294 | 10.4 | 17.4 | 0.00 | 0.00 | 0.00 | 66 | 1012.5 |
| 20260505015019 | 66 | 278 | 10.4 | 19.1 | 0.00 | 0.00 | 0.00 | 65 | 1012.5 |
| 20260505014512 | 66 | 268 | 10.4 | 19.1 | 0.00 | 0.00 | 0.00 | 64 | 1012.6 |
| 20260505014007 | 67 | 271 | 11.3 | 19.1 | 0.00 | 0.00 | 0.00 | 63 | 1012.7 |
| 20260505012955 | 67 | 275 | 12.2 | 20.0 | 0.00 | 0.00 | 0.00 | 62 | 1012.6 |
| 20260505012449 | 68 | 243 | 12.2 | 20.9 | 0.00 | 0.00 | 0.00 | 62 | 1012.6 |
| 20260505011942 | 68 | 276 | 9.6 | 20.9 | 0.00 | 0.00 | 0.00 | 61 | 1012.7 |
| 20260505011436 | 68 | 281 | 8.7 | 17.4 | 0.00 | 0.00 | 0.00 | 62 | 1012.8 |
| 20260505010930 | 68 | 252 | 9.6 | 18.2 | 0.00 | 0.00 | 0.00 | 62 | 1012.8 |
| 20260505005430 | 69 | 288 | 7.8 | 14.8 | 0.00 | 0.00 | 0.00 | 62 | 1013.0 |
| 20260505004927 | 69 | 248 | 7.8 | 15.6 | 0.00 | 0.00 | 0.00 | 63 | 1013.0 |
| 20260505004426 | 69 | 235 | 8.7 | 18.2 | 0.00 | 0.00 | 0.00 | 62 | 1013.1 |
| 20260505003927 | 69 | 272 | 8.7 | 18.2 | 0.00 | 0.00 | 0.00 | 63 | 1013.0 |
| 20260505003426 | 69 | 274 | 9.6 | 17.4 | 0.00 | 0.00 | 0.00 | 62 | 1013.0 |
| 20260505002924 | 69 | 258 | 10.4 | 17.4 | 0.00 | 0.00 | 0.00 | 62 | 1013.0 |
| 20260505002424 | 69 | 340 | 9.6 | 16.5 | 0.00 | 0.00 | 0.00 | 61 | 1013.0 |
| 20260505001922 | 70 | 289 | 8.7 | 16.5 | 0.00 | 0.00 | 0.00 | 61 | 1013.1 |
| 20260505001423 | 70 | 278 | 8.7 | 13.9 | 0.00 | 0.00 | 0.00 | 60 | 1013.1 |
| 20260505000923 | 70 | 266 | 7.8 | 15.6 | 0.00 | 0.00 | 0.00 | 60 | 1013.1 |
| 20260504235921 | 70 | 292 | 7.8 | 13.0 | 0.00 | 0.00 | 0.00 | 60 | 1013.0 |
| 20260504235421 | 70 | 245 | 7.8 | 14.8 | 0.00 | 0.00 | 0.00 | 59 | 1013.1 |
| 20260504234921 | 70 | 284 | 7.8 | 14.8 | 0.00 | 0.00 | 0.00 | 59 | 1013.2 |
| 20260504234419 | 70 | 266 | 7.8 | 14.8 | 0.00 | 0.00 | 0.00 | 58 | 1013.0 |
| 20260504233918 | 69 | 283 | 8.7 | 16.5 | 0.00 | 0.00 | 0.00 | 59 | 1013.1 |
| 20260504233417 | 69 | 295 | 8.7 | 16.5 | 0.00 | 0.00 | 0.00 | 58 | 1013.2 |
| 20260504231916 | 69 | 253 | 9.6 | 17.4 | 0.00 | 0.00 | 0.00 | 58 | 1013.1 |
| 20260504231412 | 69 | 289 | 9.6 | 17.4 | 0.00 | 0.00 | 0.00 | 57 | 1013.1 |
| 20260504230913 | 69 | 274 | 10.4 | 16.5 | 0.00 | 0.00 | 0.00 | 57 | 1013.0 |
| 20260504230412 | 69 | 287 | 10.4 | 16.5 | 0.00 | 0.00 | 0.00 | 57 | 1013.0 |
| 20260504225412 | 69 | 280 | 7.8 | 14.8 | 0.00 | 0.00 | 0.00 | 57 | 1013.1 |
| 20260504224911 | 69 | 285 | 8.7 | 14.8 | 0.00 | 0.00 | 0.00 | 57 | 1013.2 |
| 20260504224410 | 69 | 292 | 7.0 | 14.8 | 0.00 | 0.00 | 0.00 | 57 | 1013.4 |
| 20260504223912 | 70 | 289 | 6.1 | 12.2 | 0.00 | 0.00 | 0.00 | 56 | 1013.2 |
| 20260504223408 | 70 | 276 | 6.1 | 12.2 | 0.00 | 0.00 | 0.00 | 56 | 1013.4 |
| 20260504222909 | 70 | 287 | 4.3 | 9.6 | 0.00 | 0.00 | 0.00 | 57 | 1013.3 |
| 20260504222406 | 70 | 296 | 2.6 | 7.0 | 0.00 | 0.00 | 0.00 | 58 | 1013.5 |
| 20260504221906 | 68 | 159 | 1.7 | 4.3 | 0.00 | 0.00 | 0.00 | 63 | 1013.4 |
| 20260504221409 | 67 | 201 | 1.7 | 5.2 | 0.00 | 0.00 | 0.00 | 63 | 1013.5 |
| 20260504220907 | 67 | 194 | 1.7 | 5.2 | 0.00 | 0.00 | 0.00 | 65 | 1013.6 |
| 20260504220404 | 67 | 149 | 2.6 | 3.5 | 0.00 | 0.00 | 0.00 | 67 | 1013.6 |
| 20260504215905 | 66 | 154 | 2.6 | 4.3 | 0.00 | 0.00 | 0.00 | 65 | 1013.5 |
| 20260504215404 | 68 | 146 | 2.6 | 4.3 | 0.00 | 0.00 | 0.00 | 67 | 1013.5 |
| 20260504214902 | 70 | 157 | 0.9 | 4.3 | 0.00 | 0.00 | 0.00 | 62 | 1013.5 |
| 20260504214401 | 72 | 136 | 1.7 | 6.1 | 0.00 | 0.00 | 0.00 | 58 | 1013.5 |
| 20260504213900 | 72 | 254 | 2.6 | 6.1 | 0.00 | 0.00 | 0.00 | 54 | 1013.6 |
| 20260504213401 | 71 | 207 | 4.3 | 7.0 | 0.00 | 0.00 | 0.00 | 55 | 1013.7 |
| 20260504212900 | 71 | 302 | 5.2 | 7.0 | 0.00 | 0.00 | 0.00 | 57 | 1013.7 |
| 20260504212359 | 69 | 316 | 5.2 | 7.0 | 0.00 | 0.00 | 0.00 | 60 | 1013.9 |
| 20260504211400 | 67 | 304 | 3.5 | 6.1 | 0.00 | 0.00 | 0.00 | 66 | 1013.7 |
| 20260504210858 | 63 | 330 | 5.2 | 7.0 | 0.00 | 0.00 | 0.00 | 75 | 1013.7 |
| 20260504210358 | 60 | 50 | 6.1 | 7.8 | 0.00 | 0.00 | 0.00 | 78 | 1013.7 |
| 20260504205859 | 59 | 357 | 6.1 | 7.8 | 0.00 | 0.00 | 0.00 | 79 | 1013.9 |
| 20260504205354 | 59 | 20 | 6.1 | 7.8 | 0.00 | 0.00 | 0.00 | 76 | 1014.0 |
| 20260504204854 | 59 | 343 | 5.2 | 7.8 | 0.00 | 0.00 | 0.00 | 77 | 1014.0 |
| 20260504204356 | 59 | 339 | 5.2 | 7.8 | 0.00 | 0.00 | 0.00 | 78 | 1013.9 |
| 20260504203858 | 58 | 48 | 4.3 | 7.0 | 0.00 | 0.00 | 0.00 | 77 | 1013.9 |
| 20260504203354 | 58 | 11 | 5.2 | 7.0 | 0.00 | 0.00 | 0.00 | 79 | 1014.0 |
| 20260504202854 | 58 | 25 | 5.2 | 7.0 | 0.00 | 0.00 | 0.00 | 78 | 1013.9 |
| 20260504202354 | 58 | 29 | 5.2 | 7.0 | 0.00 | 0.00 | 0.00 | 79 | 1013.9 |
| 20260504201854 | 58 | 36 | 5.2 | 7.0 | 0.00 | 0.00 | 0.00 | 79 | 1013.9 |
| 20260504200851 | 58 | 30 | 7.0 | 8.7 | 0.00 | 0.00 | 0.00 | 78 | 1014.0 |
| 20260504200350 | 58 | 23 | 6.1 | 7.8 | 0.00 | 0.00 | 0.00 | 77 | 1014.1 |
| 20260504195851 | 58 | 31 | 6.1 | 7.8 | 0.00 | 0.00 | 0.00 | 78 | 1014.0 |
| 20260504194350 | 58 | 94 | 6.1 | 8.7 | 0.00 | 0.00 | 0.00 | 78 | 1014.0 |
| 20260504193850 | 58 | 44 | 7.0 | 8.7 | 0.00 | 0.00 | 0.00 | 78 | 1014.0 |
| 20260504193350 | 57 | 37 | 7.0 | 10.4 | 0.00 | 0.00 | 0.00 | 80 | 1014.0 |
| 20260504192850 | 57 | 35 | 7.8 | 10.4 | 0.00 | 0.00 | 0.00 | 80 | 1014.1 |
| 20260504192346 | 57 | 45 | 7.8 | 10.4 | 0.00 | 0.00 | 0.00 | 79 | 1014.1 |
| 20260504191846 | 57 | 37 | 7.0 | 9.6 | 0.00 | 0.00 | 0.00 | 78 | 1014.1 |
| 20260504191346 | 58 | 34 | 7.0 | 10.4 | 0.00 | 0.00 | 0.00 | 76 | 1014.1 |
| 20260504190846 | 59 | 26 | 7.8 | 10.4 | 0.00 | 0.00 | 0.00 | 75 | 1014.0 |
| 20260504190347 | 59 | 40 | 7.0 | 9.6 | 0.00 | 0.00 | 0.00 | 74 | 1014.1 |
| 20260504185846 | 59 | 28 | 6.1 | 7.8 | 0.00 | 0.00 | 0.00 | 75 | 1014.1 |
| 20260504185346 | 59 | 49 | 6.1 | 9.6 | 0.00 | 0.00 | 0.00 | 74 | 1014.1 |
| 20260504184849 | 58 | 22 | 6.1 | 9.6 | 0.00 | 0.00 | 0.00 | 76 | 1014.1 |
| 20260504184346 | 62 | 63 | 7.0 | 9.6 | 0.00 | 0.00 | 0.00 | 69 | 1014.0 |
| 20260504183846 | 62 | 15 | 7.0 | 8.7 | 0.00 | 0.00 | 0.00 | 68 | 1014.0 |
| 20260504182846 | 62 | 339 | 5.2 | 7.8 | 0.00 | 0.00 | 0.00 | 70 | 1014.1 |
| 20260504182345 | 62 | 18 | 5.2 | 7.8 | 0.00 | 0.00 | 0.00 | 68 | 1014.3 |
| 20260504181844 | 62 | 358 | 6.1 | 8.7 | 0.00 | 0.00 | 0.00 | 68 | 1014.3 |
| 20260504181344 | 62 | 330 | 7.8 | 9.6 | 0.00 | 0.00 | 0.00 | 68 | 1014.2 |
| 20260504180845 | 62 | 342 | 8.7 | 11.3 | 0.00 | 0.00 | 0.00 | 69 | 1014.3 |
| 20260504180345 | 62 | 328 | 9.6 | 11.3 | 0.00 | 0.00 | 0.00 | 68 | 1014.4 |
| 20260504175844 | 62 | 324 | 8.7 | 10.4 | 0.00 | 0.00 | 0.00 | 69 | 1014.3 |
| 20260504175343 | 62 | 321 | 7.8 | 10.4 | 0.00 | 0.00 | 0.00 | 69 | 1014.2 |
| 20260504174844 | 62 | 340 | 7.8 | 9.6 | 0.00 | 0.00 | 0.00 | 69 | 1014.0 |
| 20260504174345 | 61 | 345 | 7.8 | 9.6 | 0.00 | 0.00 | 0.00 | 73 | 1014.1 |
| 20260504173844 | 59 | 350 | 7.0 | 9.6 | 0.00 | 0.00 | 0.00 | 75 | 1014.1 |
| 20260504173345 | 59 | 359 | 6.1 | 7.8 | 0.00 | 0.00 | 0.00 | 76 | 1014.1 |
| 20260504172845 | 58 | 4 | 6.1 | 7.8 | 0.00 | 0.00 | 0.00 | 75 | 1014.1 |
| 20260504172345 | 59 | 1 | 6.1 | 7.8 | 0.00 | 0.00 | 0.00 | 75 | 1014.1 |
| 20260504171846 | 59 | 6 | 6.1 | 7.8 | 0.00 | 0.00 | 0.00 | 74 | 1014.2 |
| 20260504171343 | 58 | 15 | 6.1 | 8.7 | 0.00 | 0.00 | 0.00 | 74 | 1014.1 |
| 20260504170844 | 59 | 338 | 6.1 | 8.7 | 0.00 | 0.00 | 0.00 | 74 | 1014.1 |
| 20260504170345 | 59 | 345 | 6.1 | 7.8 | 0.00 | 0.00 | 0.00 | 74 | 1014.2 |
| 20260504160335 | 59 | 96 | 0.9 | 1.7 | 0.00 | 0.00 | 0.00 | 74 | 1014.4 |